Tulsa, OK

7:52 PM CDT on May 23, 2017 (GMT -0500)
Tulsa International

Weather History for KTUL - November, 2011

Change the Weather History Date:

Saturday, November 26, 2011

  Actual Average Record
Temperature  
Mean Temperature 51 °F 45 °F  
Max Temperature 60 °F 56 °F 83 °F (1965)
Min Temperature 41 °F 35 °F 14 °F (1993)
Degree Days  
Heating Degree Days 14 20  
Month to date heating degree days 320 367  
Since 1 July heating degree days 473 553  
Growing Degree Days 2 (Base 50)    
Moisture  
Dew Point 47 °F    
Average Humidity 71    
Maximum Humidity 93    
Minimum Humidity 49    
Precipitation  
Precipitation 0.75 in 0.08 in 1.56 in (1982)
Month to date precipitation 5.37 2.48  
Year to date precipitation 30.54 38.15  
Sea Level Pressure  
Sea Level Pressure 29.90 in    
Wind  
Wind Speed 15 mph (NW)    
Max Wind Speed 26 mph    
Max Gust Speed 33 mph    
Visibility 8 miles    
Events Rain    
T = Trace of Precipitation, MM = Missing Value Source: NWS Daily Summary

Daily Weather History Graph

Daily Weather History Graph

Search for Another Location

Airport or City:

Trip Planner

Search our weather history database for the weather conditions in past years. The results will help you decide how hot, cold, wet, or windy it might be!

Date:

Astronomy

Nov. 26, 2011 Rise Set
Actual Time 7:11 AM CST 5:10 PM CST
Civil Twilight 6:43 AM CST 5:38 PM CST
Nautical Twilight 6:11 AM CST 6:09 PM CST
Astronomical Twilight 5:40 AM CST 6:40 PM CST
Moon 8:41 AM CST (11/26) 6:44 PM CST (11/26)
Length of Visible Light 10h 54m
Length of Day
9h 58m
Waxing Crescent, 3% of the Moon is Illuminated
Nov 26
Waxing Crescent
Dec 2
First Quarter
Dec 10
Full
Dec 17
Last Quarter
Dec 24
New

Hourly Weather History & Observations

Time (CST) Temp. Windchill Dew Point Humidity Pressure Visibility Wind Dir Wind Speed Gust Speed Precip Events Conditions
12:53 AM 59.0 °F - 52.0 °F 78% 29.78 in 10.0 mi SSE 10.4 mph - 0.00 in Rain Light Rain
1:53 AM 59.0 °F - 53.1 °F 81% 29.75 in 10.0 mi SSE 9.2 mph - 0.00 in Rain Light Rain
2:53 AM 59.0 °F - 54.0 °F 83% 29.77 in 7.0 mi South 11.5 mph - 0.01 in Rain Light Rain
3:45 AM 57.2 °F - 55.4 °F 94% 29.76 in 4.0 mi SSE 8.1 mph - 0.16 in Rain Rain
3:53 AM 57.2 °F - 55.4 °F 94% 29.76 in 4.0 mi SSE 5.8 mph - N/A Rain Light Rain
4:53 AM 60.1 °F - 57.0 °F 90% 29.74 in 9.0 mi South 12.7 mph - 0.03 in Rain Light Rain
5:50 AM 60.8 °F - 57.2 °F 88% 29.73 in 4.0 mi South 15.0 mph - N/A Rain Rain
5:53 AM 60.1 °F - 57.0 °F 90% 29.73 in 4.0 mi South 12.7 mph - 0.03 in Rain Light Rain
6:53 AM 60.1 °F - 57.9 °F 93% 29.74 in 8.0 mi South 19.6 mph 24.2 mph 0.03 in Rain Light Rain
7:26 AM 60.8 °F - 57.2 °F 88% 29.75 in 2.0 mi South 11.5 mph 23.0 mph 0.19 in Rain Heavy Rain
7:31 AM 60.8 °F - 57.2 °F 88% 29.76 in 3.0 mi SSW 16.1 mph 23.0 mph 0.20 in Rain Light Rain
7:53 AM 57.9 °F - 55.0 °F 90% 29.78 in 10.0 mi WNW 16.1 mph 20.7 mph 0.21 in   Overcast
8:00 AM 55.4 °F - 53.6 °F 94% 29.80 in 5.0 mi West 13.8 mph - N/A Rain Rain
8:02 AM 55.4 °F - 53.6 °F 94% 29.80 in 1.5 mi WNW 11.5 mph - N/A Rain Heavy Rain
8:05 AM 55.4 °F - 53.6 °F 94% 29.80 in 1.2 mi NW 13.8 mph - N/A Rain Heavy Rain
8:12 AM 55.4 °F - 53.6 °F 94% 29.81 in 3.0 mi NW 16.1 mph - 0.16 in Rain Light Rain
8:30 AM 53.6 °F - 51.8 °F 94% 29.82 in 4.0 mi NNW 19.6 mph 25.3 mph 0.18 in Rain Light Rain
8:42 AM 53.6 °F - 51.8 °F 94% 29.83 in 10.0 mi NW 15.0 mph 24.2 mph 0.19 in Rain Light Rain
8:53 AM 53.1 °F - 51.1 °F 93% 29.83 in 10.0 mi NNW 15.0 mph 20.7 mph 0.19 in Rain Light Rain
8:57 AM 53.6 °F - 51.8 °F 94% 29.83 in 10.0 mi NNW 18.4 mph - 0.00 in Rain Light Rain
9:37 AM 53.6 °F - 51.8 °F 94% 29.86 in 10.0 mi NW 15.0 mph 24.2 mph 0.01 in Rain Light Rain
9:53 AM 54.0 °F - 51.1 °F 90% 29.87 in 10.0 mi NNW 13.8 mph - 0.01 in Rain Light Rain
10:42 AM 51.8 °F - 48.2 °F 88% 29.91 in 10.0 mi NW 21.9 mph 29.9 mph 0.02 in   Overcast
10:53 AM 50.0 °F - 46.0 °F 86% 29.92 in 10.0 mi NNW 23.0 mph 29.9 mph 0.02 in   Overcast
11:53 AM 46.9 °F - 44.1 °F 90% 29.94 in 10.0 mi NNW 18.4 mph 28.8 mph 0.00 in Rain Light Rain
12:09 PM 46.4 °F 39.8 °F 44.6 °F 93% 29.95 in 7.0 mi NNW 16.1 mph - 0.00 in Rain Light Rain
12:53 PM 46.9 °F - 45.0 °F 93% 29.96 in 9.0 mi NNW 15.0 mph - 0.04 in Rain Light Rain
1:33 PM 48.2 °F - 44.6 °F 87% 29.96 in 10.0 mi NNW 19.6 mph 29.9 mph 0.00 in   Overcast
1:53 PM 46.9 °F - 42.1 °F 83% 29.97 in 10.0 mi NNW 23.0 mph 32.2 mph 0.00 in   Overcast
2:53 PM 48.0 °F - 39.9 °F 74% 29.99 in 10.0 mi NNW 17.3 mph 32.2 mph N/A   Overcast
3:53 PM 48.0 °F - 37.9 °F 68% 30.04 in 10.0 mi NNW 17.3 mph 26.5 mph N/A   Overcast
4:53 PM 48.0 °F - 37.9 °F 68% 30.06 in 10.0 mi NNW 13.8 mph - N/A   Overcast
5:53 PM 48.0 °F - 37.0 °F 66% 30.09 in 10.0 mi NNW 16.1 mph 23.0 mph N/A   Overcast
6:53 PM 48.0 °F - 36.0 °F 63% 30.12 in 10.0 mi NNW 13.8 mph 21.9 mph 0.00 in   Overcast
7:53 PM 48.2 °F - 35.6 °F 62% 30.16 in 10.0 mi NNW 18.4 mph 25.3 mph N/A   Mostly Cloudy
8:53 PM 46.0 °F 39.6 °F 32.0 °F 58% 30.18 in 10.0 mi NNW 15.0 mph - N/A   Scattered Clouds
9:53 PM 44.6 °F 37.4 °F 28.4 °F 53% 30.20 in 10.0 mi NNW 16.1 mph - N/A   Mostly Cloudy
10:53 PM 43.0 °F 34.8 °F 24.1 °F 47% 30.21 in 10.0 mi NNW 18.4 mph 25.3 mph N/A   Partly Cloudy
11:53 PM 41.0 °F 33.9 °F 24.1 °F 51% 30.22 in 10.0 mi NNW 12.7 mph 28.8 mph N/A   Clear